Big Rapids, MI

4:20 AM EDT on August 20, 2019 (GMT -0400)
Roben-Hood

Weather History for KRQB - May, 2019

Change the Weather History Date:

Saturday, May 25, 2019

  Actual Average Record
Temperature  
Mean Temperature 67 °F -  
Max Temperature 77 °F 70 °F 88 °F (1977)
Min Temperature 57 °F 46 °F 29 °F (1992)
Cooling Degree Days 2    
Growing Degree Days 17 (Base 50)    
Moisture  
Dew Point 61 °F    
Average Humidity 83    
Maximum Humidity 97    
Minimum Humidity 57    
Precipitation  
Precipitation 0.67 in - - ()
Sea Level Pressure  
Sea Level Pressure 29.88 in    
Wind  
Wind Speed 8 mph (SSW)    
Max Wind Speed 17 mph    
Max Gust Speed 23 mph    
Visibility 8 miles    
Events Rain    
Averages and records for this station are not official NWS values.
T = Trace of Precipitation, MM = Missing Value Source: NWS Daily Summary

Daily Weather History Graph

Daily Weather History Graph

Search for Another Location

Airport or City:

Astronomy

May. 25, 2019 Rise Set
Actual Time 6:07 AM EDT 9:10 PM EDT
Civil Twilight 5:33 AM EDT 9:45 PM EDT
Nautical Twilight 4:49 AM EDT 10:29 PM EDT
Astronomical Twilight 3:57 AM EDT 11:21 PM EDT
Moon 2:09 AM EDT (5/25) 12:08 PM EDT (5/25)
Length of Visible Light 16h 11m
Length of Day
15h 02m
Waning Gibbous, 60% of the Moon is Illuminated
May 25
Waning Gibbous
May 26
Last Quarter
Jun 3
New
Jun 10
First Quarter
Jun 17
Full

Hourly Weather History & Observations

Time (EDT) Temp. Dew Point Humidity Pressure Visibility Wind Dir Wind Speed Gust Speed Precip Events Conditions
12:15 AM 59.4 °F 54.1 °F 83% 29.96 in 10.0 mi SE 8.1 mph - N/A   Overcast
12:35 AM 58.8 °F 54.5 °F 86% 29.95 in 10.0 mi SE 6.9 mph - N/A Rain Light Rain
12:55 AM 58.1 °F 55.0 °F 90% 29.98 in 2.0 mi SSE 8.1 mph - 0.18 in Rain Heavy Rain
12:56 AM 58.1 °F 55.0 °F 90% 29.98 in 1.8 mi SSE 8.1 mph - 0.22 in Rain Heavy Rain
1:15 AM 57.7 °F 55.6 °F 92% 29.96 in 10.0 mi SSE 4.6 mph - 0.02 in Rain Light Rain
1:35 AM 57.9 °F 56.1 °F 94% 29.95 in 7.0 mi SSE 5.8 mph - 0.13 in Rain Rain
1:36 AM 57.9 °F 56.1 °F 94% 29.94 in 7.0 mi SSE 5.8 mph - 0.13 in Rain Rain
1:55 AM 58.1 °F 56.3 °F 94% 29.94 in 10.0 mi SSE 5.8 mph - 0.13 in Rain Light Rain
2:15 AM 58.3 °F 56.8 °F 95% 29.93 in 10.0 mi SSE 8.1 mph - N/A   Overcast
2:16 AM 58.3 °F 56.8 °F 95% 29.93 in 10.0 mi SSE 6.9 mph - N/A   Overcast
2:35 AM 58.6 °F 57.2 °F 95% 29.92 in 10.0 mi SSE 4.6 mph - N/A   Overcast
2:36 AM 58.6 °F 57.2 °F 95% 29.91 in 10.0 mi SSE 4.6 mph - N/A   Overcast
2:55 AM 58.6 °F 57.2 °F 95% 29.91 in 10.0 mi SSE 4.6 mph - N/A   Overcast
3:15 AM 58.5 °F 57.2 °F 96% 29.89 in 7.0 mi SSE 5.8 mph - N/A   Overcast
3:35 AM 59.0 °F 57.6 °F 95% 29.88 in 7.0 mi SSE 6.9 mph - N/A   Overcast
3:36 AM 59.0 °F 57.6 °F 95% 29.88 in 7.0 mi SSE 6.9 mph - N/A   Overcast
3:55 AM 59.4 °F 58.3 °F 96% 29.87 in 7.0 mi SSE 3.5 mph - 0.01 in   Overcast
3:56 AM 59.4 °F 58.3 °F 96% 29.87 in 7.0 mi SSE 4.6 mph - 0.01 in   Overcast
4:15 AM 59.7 °F 58.3 °F 95% 29.85 in 2.5 mi NE 5.8 mph - 0.09 in Rain Light Rain
4:16 AM 59.7 °F 58.5 °F 96% 29.85 in 3.0 mi NE 5.8 mph - 0.09 in Rain Light Rain
4:35 AM 59.9 °F 59.0 °F 97% 29.85 in 7.0 mi SSE 3.5 mph - 0.10 in Rain Light Rain
4:55 AM 59.9 °F 59.0 °F 97% 29.84 in 5.0 mi SSE 6.9 mph - 0.12 in   Overcast
5:15 AM 60.8 °F 59.5 °F 96% 29.87 in 4.0 mi Calm Calm - 0.03 in Rain Heavy Rain
5:16 AM 60.8 °F 59.5 °F 96% 29.87 in 4.0 mi WSW 3.5 mph - 0.03 in Rain Rain
5:35 AM 60.4 °F 59.4 °F 96% 29.87 in 2.0 mi Calm Calm - 0.15 in Rain Heavy Rain
5:55 AM 60.8 °F 59.9 °F 97% 29.86 in 7.0 mi Calm Calm - 0.15 in   Overcast
6:15 AM 61.7 °F 60.8 °F 97% 29.84 in 7.0 mi SSE 6.9 mph - N/A Rain Rain
6:16 AM 61.7 °F 60.8 °F 97% 29.84 in 7.0 mi SSE 6.9 mph - N/A Rain Rain
6:35 AM 61.9 °F 60.8 °F 96% 29.84 in 10.0 mi SSE 9.2 mph - N/A   Overcast
6:36 AM 61.9 °F 60.8 °F 96% 29.85 in 10.0 mi SSE 10.4 mph - N/A   Overcast
6:55 AM 61.7 °F 60.3 °F 95% 29.86 in 2.5 mi SSE 4.6 mph - 0.03 in Rain Light Rain
6:56 AM 61.7 °F 60.3 °F 95% 29.86 in 2.5 mi SSE 5.8 mph - 0.03 in Rain Light Rain
7:15 AM 61.2 °F 60.1 °F 96% 29.84 in 5.0 mi SSE 4.6 mph - N/A   Overcast
7:35 AM 60.8 °F 59.9 °F 97% 29.84 in 5.0 mi SSE 5.8 mph - N/A   Overcast
7:36 AM 60.8 °F 59.9 °F 97% 29.84 in 5.0 mi SSE 5.8 mph - N/A   Overcast
7:55 AM 60.8 °F 59.5 °F 96% 29.84 in 7.0 mi SSE 4.6 mph - N/A   Overcast
7:56 AM 60.8 °F 59.5 °F 96% 29.84 in 7.0 mi SSE 4.6 mph - N/A   Overcast
8:15 AM 60.8 °F 59.7 °F 96% 29.84 in 5.0 mi SSE 4.6 mph - N/A   Overcast
8:35 AM 60.8 °F 59.5 °F 96% 29.84 in 7.0 mi Calm Calm - N/A   Overcast
8:55 AM 60.8 °F 59.5 °F 96% 29.85 in 7.0 mi SSE 3.5 mph - N/A   Overcast
8:56 AM 60.8 °F 59.5 °F 96% 29.85 in 7.0 mi SSE 5.8 mph - N/A   Overcast
9:15 AM 61.0 °F 59.9 °F 96% 29.85 in 5.0 mi South 3.5 mph - N/A   Overcast
9:35 AM 62.1 °F 60.8 °F 96% 29.85 in 5.0 mi SSE 3.5 mph - N/A   Overcast
9:55 AM 63.1 °F 61.9 °F 96% 29.86 in 5.0 mi SSE 4.6 mph - N/A   Overcast
10:15 AM 65.1 °F 63.7 °F 95% 29.84 in 7.0 mi South 5.8 mph - N/A   Overcast
10:16 AM 65.3 °F 63.7 °F 94% 29.84 in 7.0 mi SSE 5.8 mph - N/A   Overcast
10:35 AM 67.3 °F 65.5 °F 94% 29.84 in 7.0 mi WSW 11.5 mph 17.3 mph N/A   Overcast
10:55 AM 67.5 °F 65.3 °F 93% 29.85 in 10.0 mi WSW 9.2 mph - N/A   Overcast
11:15 AM 67.6 °F 65.1 °F 92% 29.86 in 10.0 mi WSW 12.7 mph - N/A   Overcast
11:16 AM 67.6 °F 65.1 °F 92% 29.86 in 10.0 mi WSW 12.7 mph - N/A   Overcast
11:35 AM 67.6 °F 65.1 °F 92% 29.86 in 10.0 mi WSW 10.4 mph - N/A   Overcast
11:55 AM 68.4 °F 65.3 °F 90% 29.86 in 10.0 mi WSW 10.4 mph - N/A   Overcast
12:15 PM 70.2 °F 65.5 °F 85% 29.86 in 10.0 mi West 12.7 mph 17.3 mph N/A   Scattered Clouds
12:16 PM 70.3 °F 65.5 °F 85% 29.86 in 10.0 mi West 13.8 mph 17.3 mph N/A   Scattered Clouds
12:35 PM 71.6 °F 64.6 °F 78% 29.87 in 10.0 mi West 10.4 mph - N/A   Scattered Clouds
12:36 PM 71.6 °F 64.4 °F 78% 29.87 in 10.0 mi West 10.4 mph - N/A   Scattered Clouds
12:55 PM 72.5 °F 63.9 °F 74% 29.87 in 10.0 mi West 11.5 mph 16.1 mph N/A   Overcast
12:56 PM 72.5 °F 63.9 °F 74% 29.87 in 10.0 mi WSW 10.4 mph 16.1 mph N/A   Overcast
1:15 PM 71.2 °F 64.0 °F 78% 29.87 in 10.0 mi North - - N/A   Overcast
1:35 PM 71.6 °F 64.8 °F 79% 29.88 in 10.0 mi WSW 10.4 mph - N/A   Overcast
1:36 PM 71.6 °F 64.8 °F 79% 29.88 in 10.0 mi WSW 10.4 mph - N/A Rain Light Rain
1:55 PM 70.2 °F 65.7 °F 86% 29.87 in 10.0 mi SW 9.2 mph - 0.01 in Rain Light Rain
1:56 PM 70.2 °F 65.8 °F 86% 29.87 in 10.0 mi SW 9.2 mph - 0.01 in Rain Light Rain
2:15 PM 70.3 °F 66.0 °F 86% 29.88 in 10.0 mi WSW 9.2 mph - N/A   Overcast
2:35 PM 71.6 °F 63.5 °F 76% 29.87 in 10.0 mi WSW 10.4 mph - N/A   Scattered Clouds
2:36 PM 71.8 °F 63.3 °F 75% 29.87 in 10.0 mi WSW 11.5 mph 17.3 mph N/A   Scattered Clouds
2:55 PM 72.7 °F 63.1 °F 72% 29.87 in 10.0 mi WSW 10.4 mph 19.6 mph N/A   Clear
2:56 PM 72.7 °F 63.0 °F 71% 29.87 in 10.0 mi WSW 11.5 mph 19.6 mph N/A   Clear
3:15 PM 73.9 °F 60.8 °F 63% 29.87 in 10.0 mi WSW 12.7 mph 19.6 mph N/A   Clear
3:16 PM 73.9 °F 60.8 °F 63% 29.87 in 10.0 mi SW 13.8 mph 19.6 mph N/A   Clear
3:35 PM 75.0 °F 59.4 °F 58% 29.87 in 10.0 mi West 13.8 mph 18.4 mph N/A   Clear
3:55 PM 76.1 °F 60.1 °F 57% 29.86 in 10.0 mi WSW 12.7 mph 16.1 mph N/A   Clear
4:15 PM 75.7 °F 60.6 °F 59% 29.86 in 10.0 mi SW 10.4 mph 20.7 mph N/A   Clear
4:16 PM 75.7 °F 60.6 °F 59% 29.86 in 10.0 mi SW 11.5 mph - N/A   Clear
4:35 PM 76.3 °F 61.0 °F 59% 29.87 in 10.0 mi WSW 11.5 mph 19.6 mph N/A   Clear
4:55 PM 77.0 °F 61.5 °F 59% 29.86 in 10.0 mi WSW 15.0 mph - N/A   Clear
5:15 PM 76.6 °F 60.8 °F 58% 29.86 in 10.0 mi WSW 13.8 mph 20.7 mph N/A   Scattered Clouds
5:16 PM 76.6 °F 61.0 °F 58% 29.86 in 10.0 mi SW 15.0 mph 20.7 mph N/A   Scattered Clouds
5:35 PM 76.3 °F 61.5 °F 60% 29.86 in 10.0 mi WSW 12.7 mph 18.4 mph N/A   Clear
5:55 PM 76.3 °F 61.9 °F 61% 29.87 in 10.0 mi SW 17.3 mph 21.9 mph N/A   Clear
6:15 PM 75.6 °F 60.8 °F 60% 29.87 in 10.0 mi WSW 11.5 mph 23.0 mph N/A   Clear
6:35 PM 75.6 °F 61.3 °F 61% 29.87 in 10.0 mi WSW 15.0 mph - N/A   Clear
6:36 PM 75.6 °F 61.5 °F 62% 29.87 in 10.0 mi WSW 13.8 mph - N/A   Clear
6:55 PM 75.0 °F 63.0 °F 66% 29.88 in 10.0 mi SW 11.5 mph 18.4 mph N/A   Clear
6:56 PM 74.8 °F 63.0 °F 66% 29.88 in 10.0 mi WSW 15.0 mph 19.6 mph N/A   Clear
7:15 PM 73.9 °F 62.2 °F 67% 29.88 in 10.0 mi SW 11.5 mph 18.4 mph N/A   Clear
7:35 PM 73.0 °F 62.6 °F 70% 29.88 in 10.0 mi SW 8.1 mph 18.4 mph N/A   Clear
7:36 PM 73.0 °F 62.6 °F 70% 29.88 in 10.0 mi SW 10.4 mph - N/A   Clear
7:55 PM 72.9 °F 61.5 °F 67% 29.89 in 10.0 mi SW 6.9 mph 17.3 mph N/A   Clear
7:56 PM 72.9 °F 61.7 °F 68% 29.89 in 10.0 mi SW 6.9 mph - N/A   Clear
8:15 PM 72.0 °F 61.0 °F 68% 29.89 in 10.0 mi SW 9.2 mph 18.4 mph N/A   Clear
8:35 PM 71.2 °F 61.7 °F 72% 29.88 in 10.0 mi SW 11.5 mph 17.3 mph N/A   Clear
8:55 PM 70.5 °F 62.1 °F 74% 29.89 in 10.0 mi SW 8.1 mph - N/A   Clear
9:15 PM 69.8 °F 62.2 °F 77% 29.89 in 10.0 mi WSW 8.1 mph - N/A   Clear
9:16 PM 69.8 °F 62.2 °F 77% 29.89 in 10.0 mi SW 6.9 mph - N/A   Clear
9:35 PM 69.3 °F 62.2 °F 78% 29.88 in 10.0 mi SW 6.9 mph - N/A   Clear
9:55 PM 68.9 °F 62.2 °F 79% 29.88 in 10.0 mi WSW 9.2 mph - N/A   Clear
9:56 PM 69.1 °F 62.1 °F 78% 29.88 in 10.0 mi WSW 8.1 mph - N/A   Clear
10:15 PM 69.1 °F 61.7 °F 77% 29.88 in 10.0 mi SW 8.1 mph - N/A   Clear
10:35 PM 68.9 °F 61.0 °F 76% 29.88 in 10.0 mi SW 8.1 mph - N/A   Clear
10:36 PM 68.9 °F 61.0 °F 76% 29.88 in 10.0 mi SW 6.9 mph - N/A   Clear
10:55 PM 68.4 °F 60.8 °F 77% 29.89 in 10.0 mi WSW 8.1 mph - N/A   Clear
10:56 PM 68.4 °F 60.8 °F 77% 29.89 in 10.0 mi WSW 8.1 mph - N/A   Clear
11:15 PM 67.6 °F 60.8 °F 79% 29.89 in 10.0 mi WSW 9.2 mph - N/A   Clear
11:16 PM 67.6 °F 60.8 °F 79% 29.89 in 10.0 mi WSW 8.1 mph - N/A   Clear
11:35 PM 67.3 °F 60.8 °F 80% 29.90 in 10.0 mi WSW 10.4 mph - N/A   Clear
11:55 PM 66.7 °F 60.8 °F 81% 29.90 in 10.0 mi WSW 9.2 mph - N/A   Clear
11:56 PM 66.7 °F 60.8 °F 81% 29.90 in 10.0 mi WSW 9.2 mph - N/A   Clear